Theta_e
320 321 322 323 322 323 323 324 325 325 324 323 323 320 319 319 318 318 316 314 316 314 313 313 312 312 312 312 312 311 311 311 314 314 318 319 310 307 308 307 307 306 306 305 305 305 305 305 304 304 304 304 304 304 304 304 304 304 304 304 304 304 304 304 304 303 303 303 303 303 303 303 303 303 303 303 303 302 303 306 309 314 318 318 318 318 318 318 317 316 316 318 319 319 318 316 315
320 321 323 323 322 323 324 324 324 325 324 321 321 321 319 317 317 319 316 315 314 313 312 312 311 311 310 310 310 310 311 311 312 312 314 312 308 310 308 307 307 305 306 305 305 305 305 305 304 304 304 304 304 304 304 304 304 304 305 305 305 305 305 304 304 304 303 303 303 303 303 303 303 303 303 303 302 302 302 307 310 312 317 318 318 317 317 317 317 318 318 318 318 318 318 317 317
320 322 323 323 322 323 323 324 324 322 322 320 318 320 320 318 318 317 316 314 313 312 312 311 311 311 309 310 310 311 312 312 311 310 311 309 309 311 309 307 306 306 306 305 305 304 305 304 304 304 304 304 304 304 304 304 305 305 306 306 307 306 306 305 304 304 304 304 304 303 304 303 303 303 303 303 302 302 303 307 310 312 315 317 317 316 315 316 316 318 318 317 316 316 317 317 318
321 322 323 324 324 323 324 325 325 321 321 320 317 319 319 319 317 315 314 313 312 312 312 311 311 312 310 312 313 313 312 312 311 310 311 310 310 310 309 307 306 305 305 305 305 304 305 304 304 304 304 304 304 304 304 305 305 306 307 307 307 307 307 306 305 304 304 304 304 304 303 303 303 303 303 302 302 302 303 307 311 313 314 315 315 315 315 315 315 316 317 317 316 315 317 318 318
321 321 322 324 325 324 324 324 325 323 321 320 318 318 318 318 316 314 313 313 312 312 313 312 312 313 312 312 313 313 313 312 311 310 311 311 309 309 308 306 306 305 305 305 304 305 305 304 304 304 304 304 304 304 304 306 306 307 308 308 308 308 307 306 305 304 304 304 304 304 303 304 303 303 303 302 302 302 304 307 311 314 314 314 315 315 316 316 316 316 316 316 315 314 317 318 317
321 321 321 322 323 323 324 323 321 321 321 321 319 318 318 318 316 314 314 313 312 312 313 312 312 313 311 311 311 311 312 312 311 310 310 310 309 308 307 306 305 305 305 305 304 304 304 304 304 304 304 304 304 304 305 307 307 308 308 308 308 308 308 306 305 304 304 304 304 304 303 303 303 303 303 302 302 302 304 308 312 314 314 316 316 314 315 316 316 316 315 315 315 315 317 317 317
321 322 322 322 322 321 323 322 321 322 321 320 319 318 317 317 316 315 314 313 313 312 311 312 312 311 311 311 311 311 312 311 311 310 309 309 309 308 307 306 305 305 305 305 305 304 304 304 304 304 304 304 304 305 306 307 307 308 308 308 308 308 308 306 305 305 305 305 304 304 304 303 303 303 303 303 302 302 304 308 312 313 315 317 316 314 314 315 315 314 313 315 316 316 316 316 317
321 322 322 323 324 322 323 322 322 323 321 319 319 317 317 317 316 315 314 314 313 313 311 311 310 310 312 312 312 312 311 310 310 310 310 309 308 307 306 306 305 305 305 305 304 304 304 304 304 304 304 304 304 305 307 307 307 308 308 308 308 308 308 306 305 305 305 305 305 304 304 303 303 303 303 303 302 303 304 309 312 312 315 315 311 312 315 315 315 314 313 314 316 316 316 317 316
321 322 322 323 324 324 324 323 321 323 320 319 317 316 316 316 316 316 314 314 313 312 312 311 309 310 312 311 311 312 311 310 309 309 309 308 307 307 306 305 305 305 305 305 304 304 304 304 304 304 304 304 305 306 307 307 308 308 308 308 308 308 307 306 305 305 305 305 305 304 304 304 303 303 303 303 302 303 304 309 312 313 314 310 309 313 314 315 315 315 314 315 315 315 316 316 316
321 321 322 323 323 323 323 323 322 322 321 319 317 316 316 315 315 316 315 314 312 311 311 311 310 310 311 311 311 312 311 311 309 308 308 307 308 307 306 306 305 305 305 305 304 304 304 304 304 304 304 304 305 307 307 307 308 308 308 308 308 308 307 306 305 306 306 306 305 305 304 304 304 303 303 303 303 302 304 308 310 313 313 309 311 315 315 315 316 317 316 315 315 315 315 315 315
322 321 320 322 323 321 322 322 322 322 319 317 317 316 315 315 314 315 315 314 312 311 311 310 310 310 310 310 311 312 312 311 310 308 308 308 307 306 306 306 305 305 305 305 305 304 305 305 304 304 304 305 306 307 307 308 308 308 307 308 307 307 307 306 306 306 306 306 306 305 305 304 304 304 303 303 302 302 304 307 311 313 311 310 314 315 314 315 316 317 316 315 314 314 314 315 315
323 323 321 322 322 322 321 321 322 321 319 317 316 315 315 315 315 314 314 314 312 311 311 310 310 311 310 311 311 311 311 311 309 308 308 308 307 307 306 306 305 305 305 305 305 305 305 305 304 304 304 305 307 307 307 308 308 308 307 307 307 307 307 306 306 306 307 307 306 306 305 305 304 304 303 303 302 302 303 306 311 313 310 312 315 314 315 315 314 315 314 313 313 314 314 314 314
323 324 323 322 322 323 322 321 321 321 320 316 314 313 314 315 315 314 313 314 312 311 311 310 310 310 311 311 312 311 311 310 309 308 308 307 307 307 306 306 306 306 306 306 305 305 305 305 305 304 305 306 307 307 308 308 308 308 307 307 307 308 307 306 306 306 307 307 307 306 306 305 304 304 303 303 302 302 303 306 311 312 310 312 313 314 315 313 312 313 313 312 313 313 313 314 314
321 322 323 324 324 323 322 321 320 320 318 314 311 312 313 314 314 314 313 313 312 312 312 311 310 310 310 311 311 311 310 310 308 307 307 307 307 306 306 305 306 306 306 306 306 306 305 305 305 305 306 307 307 308 308 308 308 308 307 307 307 308 307 307 306 306 307 307 307 307 307 306 305 305 304 303 302 302 302 306 311 312 310 312 313 315 315 311 310 312 311 312 313 313 313 313 314
320 320 322 323 323 322 321 321 320 320 317 312 311 311 313 313 313 313 313 312 312 311 311 310 309 309 311 311 311 311 310 310 308 307 307 306 306 306 305 306 306 306 306 306 306 306 306 305 305 305 306 307 307 308 308 308 308 308 308 307 307 307 308 307 307 307 307 307 307 307 307 306 306 305 304 304 302 302 302 306 312 311 311 313 315 316 315 311 310 311 310 312 313 312 313 313 315
319 319 322 322 321 321 322 321 320 319 315 310 310 311 312 312 312 312 312 311 311 310 310 310 309 309 311 311 311 311 310 310 308 307 307 306 306 306 306 306 306 306 307 306 306 306 306 306 305 305 307 307 307 308 308 308 308 308 308 307 307 307 307 307 307 307 307 307 307 308 308 307 307 306 304 304 302 302 301 306 312 311 312 316 316 317 316 311 310 310 311 312 312 313 314 314 315
317 319 322 322 321 320 321 320 318 317 313 310 309 310 312 312 311 311 310 310 310 310 310 310 309 309 310 310 310 311 311 310 308 307 307 307 306 306 306 306 306 307 308 307 306 306 306 306 305 306 307 307 307 308 308 308 308 308 307 307 307 307 307 308 307 307 307 307 308 307 308 308 307 306 305 304 303 303 301 306 312 311 314 317 316 317 317 314 311 311 311 311 312 313 314 314 315
318 320 321 321 321 319 317 316 314 314 313 311 310 310 311 311 311 310 309 309 309 309 310 309 309 309 309 309 309 310 310 309 308 307 307 307 306 306 307 307 308 308 309 309 307 307 307 306 306 306 307 307 307 307 307 308 308 307 307 307 307 307 307 307 307 307 307 307 308 307 308 308 307 307 306 305 303 303 301 306 312 312 314 316 316 318 318 316 313 311 311 311 312 313 314 314 315
318 320 321 321 320 316 313 312 311 312 313 312 311 310 310 311 310 310 309 309 309 309 309 309 309 309 309 308 308 308 309 309 308 307 307 307 307 306 307 308 310 310 309 309 308 308 308 307 306 306 307 307 307 307 308 308 308 307 307 307 307 307 307 307 307 308 307 307 307 307 308 307 307 307 306 305 303 303 301 304 312 312 314 316 316 318 319 318 317 315 313 311 311 312 313 314 315
317 318 321 320 316 313 311 311 311 310 311 312 312 310 309 310 310 309 308 309 310 310 310 309 310 310 310 309 309 308 308 308 307 307 307 307 307 306 307 309 310 310 310 309 309 309 308 307 306 307 307 307 307 307 308 308 308 307 307 307 307 307 307 307 307 307 307 307 308 307 308 307 307 308 307 306 304 304 302 303 311 312 312 316 317 318 319 319 319 318 316 313 312 311 312 314 315
316 316 318 317 313 313 311 310 310 309 310 310 311 310 309 310 309 309 309 310 311 311 311 311 311 311 311 310 309 309 308 308 308 307 307 307 306 306 306 308 310 310 310 309 309 308 307 306 306 307 307 307 307 307 307 307 307 307 307 307 307 306 307 307 307 307 308 308 308 307 308 308 307 307 307 306 305 304 302 302 309 313 312 314 317 318 318 319 319 319 319 317 314 312 311 313 314
314 315 315 313 312 313 311 310 309 309 309 309 310 310 310 310 309 309 309 310 311 311 311 311 312 311 311 311 310 310 309 309 309 308 307 307 306 306 306 308 309 310 310 310 309 308 307 307 306 307 307 307 307 307 307 307 307 307 307 307 306 306 307 307 307 307 307 307 307 308 308 307 307 307 307 306 306 304 303 301 306 313 312 311 315 317 317 318 318 319 320 319 317 315 313 313 314
313 314 313 311 311 311 310 310 309 308 309 309 310 309 309 310 309 310 309 309 310 311 311 311 311 311 311 311 311 310 310 310 308 307 307 307 306 306 306 307 308 308 309 309 308 307 307 307 306 307 308 307 307 307 307 307 307 307 307 307 306 307 307 306 307 307 307 307 307 307 307 307 307 307 307 306 306 305 304 302 303 310 314 312 312 315 317 318 318 319 320 321 320 318 316 315 316
313 314 312 311 310 310 310 309 308 307 308 308 309 308 308 309 309 310 310 310 310 310 311 311 310 310 309 310 310 309 309 309 308 308 308 307 307 306 306 307 307 308 308 308 307 307 308 307 306 307 308 307 307 307 307 307 307 307 307 307 306 307 307 307 307 307 307 307 307 307 307 307 307 307 307 306 306 305 305 303 302 306 312 314 312 313 317 318 318 319 319 320 320 318 316 317 318
312 314 312 310 310 310 309 308 307 307 307 308 307 307 308 308 309 309 310 310 310 310 310 310 310 309 309 308 309 308 308 308 309 309 309 309 309 308 307 307 308 309 309 308 307 307 308 308 307 307 307 307 307 307 307 307 307 307 307 307 307 306 307 307 307 307 307 307 307 307 307 307 307 307 307 306 306 306 305 304 302 303 307 313 314 313 316 318 318 319 319 319 320 318 317 318 320
311 311 311 310 310 310 309 308 308 307 307 308 308 308 309 309 309 310 310 310 310 310 309 309 310 309 309 308 307 308 307 308 308 308 308 309 308 307 307 308 309 309 309 308 307 308 308 307 307 308 308 307 308 307 307 307 307 307 307 307 307 306 307 307 307 307 307 307 307 307 307 307 307 307 307 306 306 306 306 305 303 302 303 308 314 314 315 317 317 318 319 319 320 320 318 319 320
309 310 309 310 310 309 309 308 308 308 308 309 310 310 309 310 310 310 310 311 312 310 309 309 310 309 309 309 308 308 308 307 308 308 308 308 307 307 307 308 309 309 309 308 308 308 308 308 308 308 308 307 308 307 307 307 307 307 307 307 306 306 307 307 307 307 307 307 306 307 307 307 307 307 307 307 306 306 306 305 304 303 302 304 311 314 314 316 317 318 319 319 319 320 320 320 320
309 309 309 309 310 309 309 308 309 309 308 308 309 309 309 310 310 311 310 311 313 311 310 310 310 310 309 309 309 308 308 308 308 308 308 308 307 307 307 309 310 309 309 309 308 309 308 308 308 308 308 308 308 307 307 307 307 307 307 307 307 307 307 307 307 307 307 307 307 306 307 307 307 307 307 307 307 307 306 306 305 304 303 302 305 311 314 315 316 317 318 319 319 319 320 320 320
309 308 309 310 310 309 309 309 309 308 309 308 308 309 311 313 312 312 311 311 312 311 311 311 310 310 310 309 309 309 309 308 308 308 309 308 308 307 307 309 309 310 310 309 308 309 308 308 308 308 308 308 308 308 307 307 307 307 307 307 307 307 307 307 307 307 307 306 306 306 307 307 307 307 307 307 307 307 306 306 305 305 304 303 302 305 310 313 315 316 317 318 319 319 320 320 320
309 308 308 310 310 311 309 309 309 308 308 308 309 311 312 315 314 312 312 311 311 311 311 311 311 311 310 309 309 309 309 309 309 308 308 308 308 307 307 308 309 310 309 309 309 308 308 308 308 308 308 308 308 308 308 308 307 307 307 307 307 307 307 307 307 307 306 306 306 306 306 307 307 307 307 307 307 307 306 306 305 305 304 304 303 302 304 307 311 314 316 317 318 318 318 318 319
310 310 310 310 311 312 310 309 309 308 309 309 309 311 311 312 315 314 313 312 311 311 311 311 311 311 311 310 310 310 310 310 309 308 308 308 308 307 308 309 309 309 309 310 309 308 308 308 308 308 308 308 308 308 308 307 307 307 307 307 307 307 307 307 307 306 306 306 306 306 306 306 307 307 307 307 307 307 307 306 305 305 305 305 304 304 303 303 304 308 313 315 316 317 318 318 318
310 312 313 313 312 313 311 309 309 309 310 309 311 313 311 312 315 314 313 313 312 311 312 312 312 312 312 311 311 310 310 310 309 308 308 308 308 307 307 308 309 309 309 310 309 308 308 308 308 308 308 308 308 308 308 307 307 307 307 307 307 307 306 307 306 306 306 306 306 306 307 306 307 307 307 307 307 307 306 306 306 305 305 305 304 304 304 304 303 303 306 310 312 312 315 317 318
312 313 315 314 313 315 314 310 309 310 311 309 312 314 313 313 314 314 314 313 312 311 312 312 313 313 312 312 311 310 310 309 308 308 308 308 307 307 307 307 309 309 309 309 309 309 308 308 308 308 308 308 308 308 308 307 307 307 307 307 307 307 307 306 306 306 306 306 306 307 307 307 307 307 307 307 307 307 307 306 306 305 305 305 305 305 304 305 304 303 303 304 305 305 308 313 317
315 313 314 315 314 314 314 313 311 311 311 311 311 312 311 313 314 314 314 313 312 312 312 313 313 313 312 311 311 310 310 309 309 308 308 308 307 307 307 307 309 309 309 309 309 308 308 308 308 308 308 308 308 308 307 307 307 307 307 307 307 307 307 306 306 307 307 307 306 307 307 307 307 307 306 306 306 307 307 307 306 306 306 305 305 305 305 305 305 305 304 304 304 304 303 307 313
318 315 315 316 315 314 314 315 312 310 312 312 312 312 312 312 313 314 314 314 313 313 313 314 314 313 312 311 311 310 310 309 309 309 308 308 307 307 307 307 309 309 308 308 308 308 308 308 308 308 307 307 308 307 307 307 307 306 307 307 307 307 307 307 307 307 307 307 307 307 307 307 306 307 306 306 306 306 307 306 306 306 306 306 305 305 305 305 305 305 305 305 304 305 304 303 308
318 317 316 317 316 315 315 315 311 310 313 313 313 313 313 314 315 315 316 316 314 313 314 314 314 314 313 312 311 311 310 310 309 309 308 307 307 307 307 307 309 309 308 308 308 308 308 308 308 308 307 307 307 307 307 307 306 306 307 307 307 307 307 307 307 308 307 307 307 307 307 306 306 306 306 306 306 306 306 306 306 306 306 306 306 305 305 305 305 305 305 305 305 305 306 304 305
316 316 316 317 316 315 316 315 310 310 314 315 315 315 315 315 316 316 317 317 316 313 313 314 315 315 314 313 313 312 311 311 310 310 309 308 308 308 307 308 309 309 308 308 309 309 309 308 308 308 307 307 307 307 307 306 306 307 307 307 307 307 307 307 308 308 307 307 307 307 306 306 306 306 306 306 306 306 305 306 306 306 306 306 306 306 305 305 305 305 305 305 305 305 306 306 305
314 314 315 317 318 317 317 316 311 311 315 317 316 316 316 316 317 317 317 317 317 315 314 314 314 315 315 314 314 313 313 311 310 310 310 309 309 308 307 307 308 309 309 309 309 309 309 309 308 308 308 307 307 307 307 307 307 307 307 307 307 307 308 308 308 308 307 307 307 307 307 306 306 306 306 306 306 306 305 305 305 305 305 305 306 306 305 305 305 305 305 305 305 305 305 306 306
315 315 316 317 320 320 318 315 312 311 314 317 316 315 315 314 315 315 315 316 317 317 317 316 316 315 315 315 315 315 314 312 311 311 310 310 310 309 307 307 308 308 309 310 310 309 309 309 308 308 307 307 307 307 307 307 307 307 307 307 307 307 307 308 308 308 307 307 307 307 307 306 306 306 306 306 306 306 305 305 305 305 305 305 305 305 305 305 305 304 305 305 305 305 305 305 306
318 317 318 319 321 321 319 317 314 313 314 316 316 314 314 314 316 317 316 315 316 318 319 318 317 316 316 316 316 316 315 313 312 311 311 310 310 309 308 308 308 308 309 310 309 309 309 308 308 308 308 307 307 307 307 307 306 306 306 306 307 307 307 308 308 308 307 307 307 307 307 306 306 306 306 306 306 305 305 305 305 305 305 305 305 305 305 304 305 304 305 305 304 305 305 304 305
320 320 321 322 320 318 318 318 317 317 316 315 316 317 320 321 322 323 320 317 317 317 317 317 317 317 316 316 316 316 315 314 313 312 311 311 310 309 308 308 308 309 310 310 310 310 309 308 308 308 307 307 307 307 307 306 306 306 306 306 307 307 307 308 308 308 308 307 307 307 307 307 307 307 307 306 306 306 306 305 305 305 304 304 304 304 305 304 304 304 304 305 305 305 305 304 304
321 321 320 319 318 318 318 319 320 322 321 317 316 321 327 325 321 322 320 321 320 316 317 316 315 315 315 315 316 315 315 315 314 313 311 311 310 309 309 308 308 309 310 310 310 309 309 308 308 308 307 307 307 307 307 306 306 306 307 307 307 308 308 309 308 308 308 307 307 307 307 307 307 307 307 307 307 306 306 306 305 305 304 304 304 304 304 304 304 304 304 304 304 305 304 304 304
320 319 315 316 316 318 319 319 320 323 323 319 317 320 324 321 316 318 321 324 323 319 320 317 314 314 314 313 314 314 315 315 315 313 312 311 310 309 309 308 308 309 310 310 310 309 309 308 308 307 307 307 307 307 307 306 306 306 307 307 307 308 308 309 308 308 308 307 307 307 307 308 308 308 308 308 307 307 306 306 306 305 305 305 305 304 304 304 304 304 304 304 304 304 304 304 304
320 314 313 316 316 317 318 318 319 320 321 319 317 318 321 321 318 320 323 324 324 322 323 320 314 314 314 313 313 312 313 314 314 314 311 310 310 309 309 309 308 309 310 310 310 309 309 308 308 308 308 308 307 307 307 306 307 307 307 307 308 308 309 308 308 308 307 307 307 307 308 308 308 308 308 308 307 307 307 307 307 306 305 306 305 305 305 304 304 304 304 304 304 304 304 304 304
318 311 313 315 313 315 316 317 319 319 319 321 318 316 321 325 321 319 322 323 324 324 324 322 317 315 315 313 313 312 312 313 314 313 312 311 310 310 310 309 309 309 310 310 309 309 309 308 308 308 308 308 307 307 307 307 307 307 307 307 308 309 308 308 308 307 307 307 307 308 308 308 308 308 308 308 307 307 307 307 307 306 306 306 306 305 305 305 305 305 305 305 305 304 304 304 304
313 309 313 313 312 315 315 317 319 318 320 323 321 317 320 327 324 319 321 323 325 324 323 323 317 314 316 314 312 312 312 313 313 312 312 311 310 310 310 309 309 309 310 310 309 309 309 308 308 308 308 307 307 307 307 307 307 307 307 308 308 309 308 308 308 307 307 307 307 308 309 308 308 308 308 308 308 307 308 308 307 306 306 306 306 306 305 305 305 304 305 305 305 305 304 304 304
310 312 316 317 315 315 315 316 316 318 324 323 318 315 315 323 327 324 322 324 324 321 319 321 318 315 315 314 313 313 312 313 313 312 311 311 310 310 309 309 309 309 310 309 309 309 309 308 308 308 308 307 307 307 307 307 307 307 307 308 308 308 308 308 307 307 307 307 308 308 309 308 308 309 308 308 308 307 307 307 307 306 306 306 306 306 305 305 305 304 304 304 304 304 304 304 304
311 315 318 321 320 317 316 317 315 321 328 321 314 314 316 320 327 325 321 320 320 319 318 320 319 315 315 314 313 313 312 312 313 312 312 311 310 310 309 309 309 309 310 309 309 309 308 308 308 308 308 308 308 307 308 308 307 308 308 307 308 308 308 307 307 307 307 308 309 309 309 309 308 308 308 308 307 307 307 307 306 306 306 306 306 305 305 305 304 304 304 304 303 303 303 303 303
313 317 319 322 323 321 321 322 322 325 324 317 313 315 318 320 319 317 317 317 318 318 318 319 318 315 315 314 313 313 312 312 312 312 312 311 311 310 309 309 309 309 310 310 309 309 309 308 308 308 308 308 308 308 308 308 307 308 308 307 307 307 307 307 307 307 308 308 309 309 309 309 308 308 308 307 307 307 306 306 305 305 305 305 305 305 304 304 303 303 303 303 303 303 302 302 302
315 319 320 323 325 322 323 324 323 323 321 317 314 314 320 321 317 317 318 317 316 315 315 315 315 315 315 315 313 313 313 312 312 311 311 311 311 310 310 310 309 309 309 310 309 309 309 309 309 308 308 308 308 308 308 308 308 307 307 307 307 307 307 307 307 307 308 309 309 309 309 308 308 308 307 307 306 306 306 305 305 305 304 304 304 304 303 303 302 302 302 302 302 302 301 301 301
316 318 318 321 323 321 323 323 321 323 322 318 314 317 324 323 321 322 318 315 315 314 313 313 312 314 315 315 314 313 313 312 312 311 311 311 311 310 310 310 310 309 309 310 309 309 309 309 309 308 308 308 308 308 308 307 307 307 307 307 307 306 306 307 307 308 308 309 309 309 308 308 307 307 306 306 306 306 305 305 304 304 304 304 303 303 303 302 302 301 301 301 301 301 300 300 300
315 316 318 320 319 319 322 321 318 320 321 320 318 322 326 322 321 322 317 316 316 313 313 312 311 312 313 314 314 313 313 312 311 311 311 311 311 310 310 310 310 309 309 309 309 309 309 309 309 309 308 308 308 308 308 307 307 307 307 307 306 306 306 307 307 308 308 309 309 308 308 307 306 306 306 306 306 306 305 304 304 304 303 303 303 303 302 302 301 301 301 300 300 300 299 299 298
314 315 317 316 313 315 321 320 315 316 320 322 321 322 323 320 321 321 318 320 318 314 313 311 311 311 311 313 314 312 313 312 311 311 310 311 311 310 310 310 309 309 309 309 309 309 309 309 309 308 309 308 308 308 308 307 307 307 307 306 306 306 307 307 308 308 309 308 308 308 307 306 306 306 306 306 306 305 305 304 304 303 303 303 302 302 301 301 300 300 299 299 299 299 298 298 297
314 316 315 313 312 313 317 319 318 319 321 322 319 320 321 317 319 321 319 322 322 319 316 312 311 311 311 312 313 312 313 312 311 311 310 310 310 310 310 310 309 309 309 309 309 309 309 309 308 309 309 309 308 308 308 307 307 307 306 306 306 307 307 307 308 308 308 308 308 307 306 306 305 306 306 306 305 305 304 303 303 303 302 302 301 300 300 299 299 298 298 298 298 298 297 297 296
310 313 311 312 316 317 317 317 319 320 320 321 320 319 318 317 319 319 318 322 323 321 319 316 314 313 311 312 312 312 312 311 311 310 310 310 310 310 310 309 309 309 309 309 309 309 309 308 308 308 309 308 308 308 307 307 307 306 306 306 306 307 307 307 308 308 308 308 308 307 305 305 305 305 305 305 305 304 304 303 302 302 301 300 299 299 298 298 297 297 297 297 297 296 296 295 295
307 310 310 311 314 317 318 318 318 319 320 322 321 319 319 320 321 320 318 319 318 320 323 323 317 312 312 313 312 312 312 311 311 310 310 310 310 310 309 309 309 309 309 309 308 309 308 308 308 308 309 308 308 307 307 307 307 306 306 306 306 307 307 307 307 308 308 308 307 306 305 305 305 305 305 304 304 303 302 301 300 300 300 299 298 298 297 297 296 296 296 295 295 295 294 294 293
311 312 313 311 312 314 316 316 317 318 319 319 319 317 318 320 320 320 318 316 317 319 324 325 318 313 314 314 313 313 312 312 312 311 310 310 310 310 309 309 309 309 309 308 308 308 308 308 308 308 308 308 308 308 307 307 307 306 306 306 306 306 307 307 307 307 307 307 306 305 304 304 304 304 304 303 303 302 301 300 299 299 299 298 298 297 296 296 295 294 294 294 293 293 292 292 291
313 314 315 315 315 316 316 317 317 316 317 319 318 317 317 319 319 319 317 317 319 319 319 322 318 315 316 315 313 314 313 313 313 312 311 310 310 310 309 309 309 309 309 308 308 308 308 308 308 308 308 308 308 308 307 307 306 306 306 306 306 306 307 307 307 307 307 307 306 305 304 304 304 304 303 303 302 301 300 299 298 298 298 298 298 297 296 295 294 293 293 292 292 292 291 291 290
Wind_Speed
4 4 2 2 2 3 4 5 4 2 2 3 4 2 1 1 3 5 5 5 3 5 6 6 5 3 1 0 1 4 5 3 0 1 2 3 2 6 7 9 8 7 9 11 11 8 5 5 5 6 6 7 7 7 7 6 7 7 7 8 8 9 10 11 11 11 12 12 13 13 14 14 15 15 16 17 17 18 19 21 23 22 21 22 23 23 23 23 23 22 21 22 23 24 23 21 18
5 4 2 1 2 2 4 3 2 2 3 4 3 3 4 3 2 5 6 5 4 6 7 7 5 2 1 0 3 5 3 4 2 1 3 1 5 6 3 6 9 8 7 8 10 9 5 4 6 6 6 6 6 6 5 5 5 5 6 7 8 9 10 10 11 11 12 12 13 13 13 14 14 15 16 17 18 19 20 22 24 24 23 23 24 24 24 23 22 22 23 23 24 23 21 19 19
5 4 3 1 4 4 5 2 2 3 3 3 1 2 3 3 5 8 8 9 9 10 7 6 4 2 2 1 3 3 1 4 2 1 2 2 4 6 4 5 10 10 8 7 8 9 7 5 5 5 5 5 4 4 4 4 4 4 5 7 8 9 10 11 11 11 12 12 12 13 13 14 14 15 17 18 19 19 21 23 25 25 24 23 23 23 23 22 21 22 24 24 24 21 19 20 21
5 4 3 1 6 5 4 2 2 3 4 1 2 2 2 6 8 8 9 10 9 8 6 4 3 2 3 2 1 3 3 5 4 3 4 5 7 9 8 8 10 11 8 8 7 7 7 6 5 4 4 4 3 3 3 3 4 4 5 7 8 9 10 10 11 11 11 12 12 12 13 13 14 15 17 18 19 20 21 24 26 27 26 24 22 22 22 23 22 23 23 25 23 19 19 21 22
6 5 4 2 5 3 2 2 2 3 4 2 2 2 5 7 7 8 8 8 7 5 5 4 2 2 2 4 2 2 3 5 5 5 8 10 10 11 10 9 10 11 8 7 7 7 6 5 5 4 3 3 3 2 3 3 3 4 5 7 8 9 10 10 11 11 11 12 12 12 13 14 15 15 17 18 19 20 22 25 26 27 28 25 23 22 23 24 24 24 23 24 22 18 20 22 21
5 3 3 3 5 4 2 2 3 4 3 3 3 3 5 6 8 10 9 8 5 4 4 3 1 1 1 5 5 3 5 5 2 5 10 11 10 10 10 9 10 11 8 6 6 7 6 5 4 4 3 3 3 2 3 3 3 4 6 7 8 9 10 10 11 11 11 12 12 13 13 14 15 15 17 18 19 21 23 25 26 28 28 25 25 23 22 24 25 24 22 22 21 20 21 22 22
6 3 4 4 5 3 2 3 5 4 1 3 3 4 4 6 10 11 9 6 4 3 4 3 2 1 2 3 4 6 8 6 4 7 11 9 8 9 9 8 8 10 9 7 7 6 6 5 4 3 2 2 2 2 3 3 4 4 6 7 8 9 10 10 11 11 11 12 12 13 14 14 15 16 17 18 19 21 23 25 27 29 28 26 25 24 22 24 25 25 23 21 22 22 22 22 23
8 5 5 3 2 2 3 4 5 4 0 2 4 5 6 8 10 9 7 4 3 4 5 5 4 1 2 3 3 6 8 7 11 12 11 9 9 8 8 8 8 9 8 7 7 6 5 4 3 2 2 2 2 2 3 3 4 5 6 7 8 9 9 10 10 11 11 11 12 13 14 14 15 16 17 18 20 21 24 26 28 30 29 27 25 23 22 24 25 25 23 21 23 23 22 22 22
8 6 3 2 3 2 4 4 5 5 1 4 4 6 8 8 7 6 6 5 4 6 6 8 7 3 2 4 4 5 8 9 13 14 12 12 9 8 8 8 9 9 8 7 7 6 5 4 3 2 2 2 2 2 3 4 5 6 7 8 8 8 9 10 10 11 11 11 12 13 14 14 15 16 17 19 20 22 24 26 28 30 31 28 25 23 23 24 25 25 24 22 24 24 23 22 22
7 7 2 1 2 3 4 4 4 2 2 4 6 8 8 8 5 4 5 6 7 7 7 8 7 6 2 3 4 6 10 10 9 10 13 12 8 8 8 7 8 8 8 7 6 6 4 3 2 3 2 2 2 2 3 4 5 6 7 8 8 8 9 9 10 10 10 11 12 13 14 15 16 16 18 19 21 22 23 26 28 30 31 28 25 24 25 25 25 25 26 25 25 24 23 22 22
7 8 3 2 2 4 4 3 4 2 4 3 6 9 8 8 6 4 4 5 7 7 8 8 5 9 7 5 6 8 12 10 9 8 10 10 6 8 8 7 7 7 7 6 6 5 4 3 3 3 2 2 2 3 4 5 6 7 8 8 8 8 8 9 9 10 10 11 12 13 14 15 16 17 18 19 21 21 24 26 28 30 29 25 24 25 26 25 25 25 27 28 25 23 22 21 20
5 5 4 2 3 4 2 2 4 2 4 3 4 7 8 8 6 4 6 4 7 8 9 10 3 5 6 5 7 10 12 11 11 9 7 7 7 7 8 7 5 6 6 5 5 5 5 4 3 3 2 2 2 4 5 5 7 7 8 8 8 8 8 9 9 10 10 11 12 13 14 15 17 18 18 20 21 21 24 25 27 29 26 24 25 25 25 24 24 22 24 24 21 19 20 19 19
5 3 3 2 3 3 3 3 5 4 1 1 3 4 7 8 6 5 7 6 8 7 7 11 6 3 4 2 6 9 10 10 10 8 6 6 7 7 7 7 5 6 6 5 6 5 4 4 4 3 2 2 3 4 5 6 7 7 8 8 8 8 8 8 9 10 10 11 12 13 14 16 17 17 17 19 20 22 23 25 27 27 24 24 24 24 25 26 24 20 20 18 15 18 18 17 17
5 4 1 1 2 2 3 3 4 4 2 1 4 3 6 5 4 3 5 5 7 7 6 10 8 3 4 3 6 9 10 10 9 6 5 6 8 7 6 6 5 6 6 5 6 5 5 4 4 3 2 3 4 5 5 6 7 7 8 8 8 8 7 8 9 9 10 11 13 13 14 15 15 15 17 19 20 22 23 25 26 24 22 23 23 25 28 28 25 20 17 15 15 18 18 18 17
4 5 2 1 2 3 2 2 4 4 1 1 1 2 4 3 3 3 4 4 4 6 7 11 11 4 3 3 5 13 16 13 8 5 5 6 7 6 6 6 6 6 6 6 5 5 5 5 4 3 4 4 5 6 6 5 7 7 8 8 8 7 7 8 8 9 10 11 12 13 14 14 15 17 19 19 21 22 22 24 25 22 20 22 23 26 30 28 24 20 17 15 16 17 17 19 17
4 3 2 1 3 4 2 3 4 3 1 2 2 3 4 3 4 4 6 6 1 5 9 10 13 8 3 2 4 13 16 13 9 6 5 5 7 6 6 6 6 7 6 6 5 5 5 5 4 4 5 5 6 7 7 7 7 7 8 8 7 7 7 7 8 9 9 10 11 12 14 14 16 19 18 19 20 20 20 23 23 19 18 23 26 28 31 28 23 19 17 16 16 15 16 19 17
4 2 2 2 4 4 1 1 2 2 1 2 2 3 3 2 4 6 8 10 6 6 9 10 14 15 8 3 7 11 12 12 11 8 6 6 7 7 7 7 7 8 7 5 4 6 5 5 4 5 5 6 6 7 8 8 7 8 7 7 7 6 7 7 7 8 8 9 11 13 14 15 17 17 18 19 19 19 20 21 22 19 18 24 27 28 31 29 24 19 16 15 14 13 17 20 19
3 1 2 3 4 3 2 3 3 2 1 3 3 3 4 1 3 6 6 10 13 11 12 13 14 18 15 9 11 14 13 14 13 11 9 8 8 9 9 7 7 7 7 6 5 6 6 5 5 5 6 6 6 6 7 8 7 7 7 6 6 6 6 7 7 7 8 10 11 12 13 15 16 16 18 20 19 19 20 21 23 20 18 22 24 26 29 29 26 20 16 14 13 14 17 20 20
4 2 3 4 2 1 4 5 5 4 2 2 3 2 4 2 1 4 4 7 12 11 13 15 16 18 19 16 16 19 18 17 17 16 15 13 11 10 8 5 6 5 5 7 8 9 7 6 6 6 7 6 6 7 7 7 7 7 7 7 7 8 7 7 7 7 8 9 10 12 13 14 15 16 18 19 19 19 20 21 22 20 16 18 20 24 27 27 27 25 21 16 13 12 14 16 16
6 4 3 2 1 2 6 7 6 5 3 3 2 1 3 5 3 3 4 7 8 9 11 13 17 20 19 19 20 22 21 19 20 19 18 17 14 12 9 7 7 7 8 9 9 11 9 8 8 7 7 7 7 7 7 7 7 7 8 9 9 10 9 8 8 8 8 8 10 12 13 13 14 16 17 18 19 19 20 20 21 20 15 14 17 22 25 25 26 27 25 20 16 13 11 12 11
3 3 3 1 3 2 4 5 3 3 2 3 3 0 3 7 6 6 6 6 6 11 15 14 15 16 15 17 19 23 22 20 19 19 19 18 17 15 12 11 10 10 11 11 12 12 11 9 9 7 8 7 7 7 7 7 8 8 9 9 9 10 9 9 9 9 8 9 11 11 11 13 14 16 16 18 18 19 19 19 20 20 16 14 15 18 22 23 25 26 25 21 19 17 14 12 11
1 3 2 1 3 1 3 2 2 2 2 2 3 2 4 4 6 11 9 7 6 5 8 14 13 10 11 13 15 20 21 20 18 17 17 18 18 17 15 14 13 13 15 14 13 13 13 9 8 8 8 7 7 7 7 7 7 7 8 8 9 9 9 9 9 9 10 10 10 11 11 12 14 15 16 17 18 19 18 18 19 20 18 15 13 15 19 22 24 24 25 23 20 18 16 13 11
2 3 1 1 2 1 2 2 3 2 1 2 4 5 6 5 8 13 15 19 16 7 4 9 12 10 12 14 15 17 19 18 16 14 14 15 17 17 17 16 15 16 17 16 14 14 13 7 7 9 8 7 7 7 6 6 6 7 7 8 8 8 8 9 9 10 9 9 10 11 12 12 13 14 15 16 17 18 17 18 18 19 19 16 14 13 17 21 22 23 25 25 21 17 17 15 13
3 4 2 2 2 1 2 4 4 2 3 5 6 7 7 7 8 8 17 27 24 17 13 12 14 14 13 15 16 16 15 15 13 12 12 13 15 16 17 17 16 17 16 15 14 14 13 7 7 9 8 8 7 6 6 6 7 6 7 7 7 7 7 8 8 9 8 9 11 11 11 11 13 14 14 16 16 17 17 18 17 18 18 17 15 13 15 19 20 22 24 24 22 18 18 18 16
5 4 1 1 2 2 4 4 4 4 5 6 6 8 9 13 11 10 22 31 26 24 21 19 20 18 17 18 18 16 14 13 13 14 14 15 15 16 18 18 17 16 14 13 13 14 12 8 8 9 8 8 7 6 6 6 7 6 6 7 7 7 7 7 8 8 8 10 11 11 11 11 11 13 14 15 16 16 17 17 17 17 18 17 16 13 13 16 17 19 23 24 22 20 19 18 17
3 1 1 2 2 4 4 5 5 5 6 5 4 8 10 13 11 14 28 29 23 25 24 21 21 21 22 21 21 20 18 16 16 17 17 18 18 18 18 18 17 15 13 12 14 14 11 8 8 8 8 8 8 6 6 6 6 6 6 6 6 6 6 7 7 7 9 10 10 11 11 10 11 12 13 14 15 16 16 17 17 16 17 17 17 14 12 13 14 16 19 22 22 21 20 18 19
1 2 4 5 5 5 6 6 7 6 6 7 5 6 10 10 4 10 20 13 10 17 21 21 21 23 24 22 24 23 21 20 18 18 19 20 21 20 18 18 17 14 13 14 14 13 10 9 8 7 8 8 7 6 6 6 5 6 6 6 6 6 6 7 6 7 9 9 10 10 9 10 11 11 12 14 15 15 16 16 16 16 16 16 16 16 13 12 12 13 15 18 19 20 19 17 18
2 2 5 7 8 8 9 8 8 7 4 7 8 7 12 8 4 16 23 12 8 12 17 20 21 24 24 23 23 22 22 20 19 20 21 23 23 21 20 19 16 14 14 13 14 12 10 9 8 7 8 7 7 6 6 6 5 5 6 6 5 5 6 6 6 8 8 8 9 8 9 10 10 10 12 13 14 15 15 16 16 16 15 14 15 16 14 11 9 10 12 14 14 15 17 17 16
2 2 4 5 6 7 11 10 7 7 3 4 4 7 9 6 12 28 27 16 14 12 14 17 18 20 20 20 19 20 20 19 20 23 23 23 22 20 20 19 16 15 13 13 14 12 10 10 8 7 7 7 6 6 6 6 5 5 5 5 5 4 5 5 6 7 7 8 8 8 9 9 10 10 11 11 13 14 15 16 15 16 14 13 15 15 15 13 10 9 9 10 11 12 14 15 14
1 3 2 3 3 3 8 8 6 5 4 4 1 4 6 5 18 27 17 15 17 14 14 15 15 16 15 16 17 19 19 19 21 23 24 24 21 19 19 19 17 15 14 14 14 12 11 10 8 7 7 7 7 7 6 6 5 5 5 4 4 4 4 5 6 6 6 6 7 7 8 9 9 10 10 10 11 12 14 15 15 15 14 13 14 14 14 14 11 11 9 8 8 9 10 12 13
1 2 3 3 3 2 3 6 6 5 4 6 3 2 7 9 12 16 12 15 15 14 16 15 16 17 16 17 19 21 21 20 21 22 24 24 22 20 20 19 17 15 15 14 13 12 11 10 8 8 8 7 7 7 6 5 4 5 5 4 3 3 3 4 5 5 5 5 6 7 8 9 9 9 9 9 9 11 12 14 15 15 13 13 14 14 14 13 12 12 11 9 8 8 8 9 10
2 2 2 3 4 3 2 4 6 3 2 8 4 1 8 10 4 13 14 13 13 14 14 14 17 18 18 19 20 22 22 20 20 20 23 24 23 24 23 21 18 16 16 13 12 12 11 11 9 9 8 8 7 7 6 5 5 5 5 3 2 2 2 3 4 4 4 4 6 7 7 8 8 9 9 9 9 10 10 12 13 14 13 14 14 13 13 13 12 12 11 10 10 10 10 8 8
3 3 2 2 4 3 1 2 4 2 1 6 6 3 6 5 4 10 12 12 14 15 15 15 17 18 20 20 21 21 20 19 19 20 22 23 24 26 24 22 20 17 16 15 13 12 11 11 10 9 9 8 8 7 6 6 6 5 4 3 2 2 1 2 2 3 3 4 5 6 7 7 7 8 8 9 9 9 9 10 12 12 13 14 14 14 13 13 12 12 11 11 12 12 11 10 8
4 4 3 3 3 4 2 1 3 3 2 4 6 6 10 10 7 10 13 13 16 17 18 19 18 19 20 20 20 20 19 20 20 20 21 22 24 26 25 22 21 17 16 16 13 12 12 12 11 10 10 9 8 7 7 7 6 6 5 4 3 1 0 1 1 1 2 4 5 5 6 7 7 7 8 8 9 9 9 9 10 11 11 13 14 14 14 13 12 11 12 12 12 12 11 10 9
1 2 2 3 3 4 4 2 2 3 3 4 5 8 14 16 14 18 21 20 20 21 21 22 21 21 21 22 22 21 21 23 23 21 21 23 24 26 24 22 21 18 17 16 13 14 14 13 13 12 11 10 9 8 8 7 7 7 5 4 3 2 1 1 0 1 2 3 4 5 6 6 6 7 8 8 9 9 8 8 8 9 9 11 12 12 13 13 12 11 12 13 12 11 10 10 9
1 1 0 3 3 5 3 2 1 2 2 6 8 9 13 16 15 16 20 22 23 24 23 23 23 22 23 24 24 23 23 23 22 20 20 23 25 25 24 22 22 19 18 17 15 16 15 15 14 13 12 11 10 9 9 9 8 8 6 6 4 3 2 2 1 0 2 2 3 4 5 6 6 7 7 8 8 8 8 8 8 8 8 9 10 11 12 13 13 12 12 13 12 11 9 9 8
2 2 2 3 4 6 2 3 1 2 1 6 9 9 12 16 15 14 18 19 19 20 20 21 23 25 25 25 25 26 24 23 21 19 21 24 25 24 22 22 22 20 19 18 17 17 16 15 15 14 13 12 10 10 9 9 9 9 8 6 5 3 3 3 2 0 1 1 2 3 4 5 6 6 7 7 8 7 7 8 8 8 8 8 9 10 11 12 12 12 12 13 13 11 9 9 7
1 2 3 4 5 5 1 4 2 1 0 5 7 9 12 14 15 16 18 14 14 18 18 21 24 25 26 26 26 25 23 22 22 23 24 25 24 22 22 23 23 21 20 18 17 17 16 16 15 14 13 12 11 11 11 10 10 9 7 6 4 3 4 3 2 1 1 1 2 3 4 5 5 6 7 7 7 7 6 7 7 7 7 7 8 9 9 10 10 11 12 13 13 13 13 11 9
0 0 2 3 4 2 2 3 1 2 2 5 6 9 13 15 17 18 18 15 17 23 22 24 25 25 25 26 27 25 22 23 25 27 27 26 23 21 22 23 22 21 19 17 17 17 17 17 16 15 14 13 12 12 12 10 9 8 8 7 5 4 5 4 2 2 2 1 2 3 4 5 5 6 6 6 6 6 6 6 6 6 6 6 7 7 7 8 9 9 11 12 12 13 14 13 12
2 3 1 3 2 1 1 1 2 3 4 3 7 8 11 13 14 15 15 13 14 17 17 17 20 21 21 22 25 25 25 26 27 28 29 27 25 22 23 23 23 22 19 18 18 18 17 17 17 16 15 14 13 13 12 10 9 9 9 8 7 7 7 6 5 4 3 2 2 3 4 5 5 5 5 6 5 5 5 5 5 4 4 5 5 5 5 5 6 7 8 9 9 10 12 13 13
4 4 2 4 2 2 2 3 6 5 1 2 5 7 7 6 6 8 7 4 5 8 9 10 13 16 16 16 18 21 26 29 29 29 30 29 27 25 24 24 24 23 20 19 18 17 17 18 18 16 15 15 14 14 12 11 10 10 10 10 9 9 9 8 7 6 4 3 3 3 4 4 4 4 4 4 4 4 5 4 4 4 4 4 4 4 4 4 4 5 5 6 7 7 8 9 10
3 1 2 2 2 3 3 6 7 5 3 2 2 4 6 5 6 9 6 4 5 5 6 10 13 15 17 18 17 17 21 25 28 29 30 30 28 26 25 25 25 23 20 18 16 16 17 18 18 16 16 15 15 15 13 12 11 11 11 12 11 11 11 9 7 6 6 4 3 3 4 4 3 2 2 3 3 3 3 4 4 3 3 4 4 4 4 4 4 4 4 4 4 5 6 6 6
2 2 4 3 2 3 4 5 4 2 4 4 3 2 5 8 10 10 8 7 6 4 5 9 13 15 18 20 20 20 20 21 24 27 28 29 29 28 27 26 26 23 21 19 17 17 18 18 17 17 16 16 16 15 14 13 12 12 12 12 12 13 12 10 8 7 6 5 4 4 4 4 3 1 1 2 2 2 3 3 3 3 3 4 4 4 4 4 4 4 4 4 3 3 3 3 4
2 3 4 4 3 3 3 3 1 2 5 3 2 4 2 7 10 7 5 7 6 4 7 8 11 15 17 17 19 22 23 23 23 26 28 29 29 29 28 26 25 24 22 19 18 18 18 18 17 18 17 16 17 16 15 14 13 13 13 14 15 14 12 10 9 9 7 5 5 5 5 4 3 1 1 0 0 1 2 2 3 3 3 4 4 4 4 4 4 4 4 4 4 3 3 3 3
2 3 2 2 2 2 2 1 2 3 4 4 2 2 1 5 9 6 2 4 6 7 7 7 10 15 15 15 15 18 20 22 24 27 29 28 29 29 28 26 25 25 23 19 19 19 18 18 19 19 18 17 17 16 16 15 15 14 15 15 16 15 13 12 11 10 8 7 6 6 6 5 3 2 1 1 1 1 1 2 2 2 3 4 4 4 4 5 5 5 5 5 5 4 4 4 4
1 2 2 0 1 1 0 1 2 2 2 4 5 3 2 5 8 6 2 2 5 5 3 4 10 14 15 14 14 15 18 21 23 26 27 27 27 28 27 26 26 26 23 21 20 20 20 20 20 19 19 18 18 17 17 17 16 16 16 17 17 16 15 14 13 12 10 9 9 8 7 6 4 3 3 3 2 2 2 1 1 2 3 3 4 4 4 5 5 6 6 6 6 5 5 5 5
1 2 2 1 1 0 0 2 1 1 2 5 4 3 2 2 7 6 3 2 4 2 2 1 8 12 13 14 15 16 19 23 24 24 25 25 26 27 27 28 28 27 24 23 22 21 21 21 21 20 19 19 18 18 18 18 18 18 18 19 18 18 17 16 15 13 12 11 11 9 8 7 6 5 4 4 3 2 2 2 2 2 3 3 3 3 4 4 5 6 6 6 6 6 6 5 5
1 1 1 2 1 1 2 1 1 1 3 4 2 0 2 2 6 5 4 3 3 3 2 1 5 11 14 14 16 18 19 23 25 24 25 26 27 28 29 29 29 28 26 25 24 22 22 22 22 21 21 20 20 19 19 19 19 19 19 19 19 19 18 17 16 14 13 13 12 10 9 8 7 6 5 5 4 3 3 2 3 3 3 3 3 3 4 4 4 5 5 6 6 6 6 6 5
0 1 3 3 2 2 1 1 1 2 4 3 2 1 0 5 8 9 11 11 7 2 2 3 3 8 14 16 17 18 20 23 25 27 27 28 29 30 31 31 30 29 27 26 25 24 23 23 23 22 22 21 21 20 20 20 20 20 20 21 21 20 19 18 16 15 14 14 13 12 11 10 8 7 7 6 5 4 3 3 3 3 3 3 3 3 3 3 4 4 4 5 5 5 6 6 5
2 2 3 2 1 1 2 2 2 2 2 3 3 2 2 5 7 9 11 8 3 2 2 1 1 3 9 15 17 18 21 22 25 28 29 30 30 30 31 31 30 29 29 28 26 25 25 24 24 24 23 23 22 22 22 22 22 21 22 22 22 21 21 19 17 16 16 15 14 14 13 11 10 9 8 7 6 5 4 4 4 3 2 2 2 3 3 3 3 3 3 4 4 5 5 5 5
4 3 4 3 2 2 2 1 2 3 2 2 3 2 4 3 4 6 5 4 3 1 2 4 5 4 6 11 16 18 20 21 24 27 29 29 30 30 31 31 30 30 30 29 28 27 26 26 25 25 25 24 24 23 23 23 23 23 24 23 22 22 21 19 18 18 17 16 16 16 14 13 11 10 9 8 7 7 6 5 4 4 2 2 1 2 2 2 2 2 2 3 3 3 3 3 4
2 1 4 2 2 2 2 1 2 1 2 2 1 3 5 5 8 9 4 4 2 2 3 4 6 7 6 11 16 18 19 21 24 27 28 29 29 30 30 31 31 31 31 31 30 28 28 27 27 26 26 25 25 25 25 25 25 25 25 24 23 23 21 20 20 19 18 18 18 17 16 14 13 12 11 10 9 8 7 7 6 4 3 2 2 1 1 1 1 1 1 1 2 2 2 2 3
0 1 1 3 3 1 1 1 1 2 1 4 4 4 5 3 8 9 1 2 4 2 4 5 6 7 9 12 15 17 20 21 23 26 28 28 29 30 30 31 32 32 33 32 31 30 29 28 28 27 26 26 26 26 26 26 26 26 26 25 24 23 22 21 21 20 20 20 20 19 17 16 14 14 13 12 11 10 9 8 7 5 4 3 3 3 2 2 2 1 1 0 1 1 1 1 2
2 2 3 3 1 1 1 0 2 1 4 4 4 6 5 2 5 5 3 2 6 5 6 6 6 8 11 14 16 17 19 20 22 25 26 27 29 30 31 32 33 33 33 32 31 30 30 29 29 28 27 27 27 27 27 27 27 27 27 26 25 24 23 22 22 22 22 22 21 20 19 17 17 16 15 14 13 12 10 9 8 7 6 6 6 5 5 4 4 3 2 2 1 1 1 2 2
2 2 2 1 1 0 1 1 1 2 4 4 4 7 5 4 5 4 3 5 7 6 7 5 6 9 12 14 16 17 18 20 23 25 27 28 29 30 31 32 33 33 33 32 32 32 31 30 30 29 28 27 27 28 28 28 28 28 28 27 26 25 25 24 24 24 24 23 22 22 20 19 18 18 17 16 15 13 11 11 10 9 9 8 8 7 7 6 5 5 4 3 3 3 3 3 3
1 2 2 1 2 2 3 2 1 2 3 4 4 5 4 6 6 6 7 7 3 4 7 6 7 11 13 13 14 16 18 20 23 26 28 29 29 30 31 32 33 33 33 33 33 33 32 31 30 30 29 29 29 29 29 30 30 30 29 28 27 27 26 26 25 25 25 24 24 23 22 21 20 20 19 18 16 14 13 13 12 12 10 10 9 9 8 8 7 7 6 5 5 4 4 4 4
2 1 1 1 1 1 1 2 2 3 2 3 4 6 5 5 5 6 7 4 2 4 5 6 8 10 12 13 13 15 17 18 21 24 28 30 30 30 31 32 33 33 34 34 34 34 32 32 32 31 31 30 30 30 31 31 31 31 30 29 29 28 28 27 27 27 27 26 26 25 24 23 23 22 21 20 18 16 15 15 14 13 12 11 11 10 9 9 9 8 8 7 6 5 5 5 5
5 5 5 5 4 3 1 4 3 2 2 2 2 7 7 4 4 5 5 3 2 2 3 4 5 6 9 12 13 14 16 17 19 22 26 29 30 31 31 32 33 34 35 35 35 35 34 33 33 32 32 32 31 32 32 33 33 32 31 31 30 30 29 29 29 29 29 29 28 28 26 26 25 24 23 21 20 18 17 17 16 14 14 13 12 11 11 11 10 10 10 9 8 7 7 6 6
Wind_Direction
226 223 223 258 279 333 312 271 266 224 215 267 253 169 76 26 132 130 120 125 127 78 83 98 95 102 92 59 309 294 265 242 118 168 226 168 225 295 283 287 303 296 288 286 294 294 297 320 335 350 358 13 20 22 24 21 22 10 0 354 348 345 342 340 339 336 334 333 331 332 333 335 336 336 334 332 333 333 334 334 333 330 327 325 323 321 316 312 310 311 309 305 301 298 300 297 294
217 215 191 310 312 317 292 230 257 255 206 252 269 106 129 174 127 85 94 103 93 108 115 109 108 122 120 259 262 278 266 215 244 228 218 252 297 288 252 288 305 297 291 291 298 305 319 345 341 349 2 13 20 25 27 29 28 11 2 356 351 346 342 341 339 336 335 333 331 333 333 336 337 336 334 334 334 335 337 336 334 333 330 327 325 320 315 312 313 314 309 303 301 298 297 296 295
209 219 163 359 314 269 278 248 248 277 241 248 335 80 157 139 88 73 80 92 106 121 118 111 117 127 149 227 251 251 184 172 224 149 197 280 273 253 257 299 304 301 301 300 301 307 325 353 340 347 5 12 19 28 34 35 34 15 6 358 353 346 341 341 339 338 335 333 332 333 334 338 339 338 337 336 336 337 338 337 337 337 333 329 325 320 317 316 314 311 308 305 301 297 297 294 291
199 214 159 287 291 250 253 239 233 283 279 284 60 10 57 89 93 89 90 103 120 127 119 120 121 110 178 225 277 249 202 160 173 142 165 195 209 237 271 292 292 295 303 302 302 303 320 346 341 355 7 12 18 25 41 43 35 15 6 359 352 343 340 341 340 340 336 335 334 334 337 340 342 341 339 337 338 338 339 340 340 340 338 333 328 328 326 324 318 312 309 308 304 297 296 295 289
194 198 166 207 277 268 283 266 263 264 282 356 85 22 51 90 108 105 106 117 128 129 130 143 138 120 220 240 247 256 162 162 196 179 187 206 218 241 265 280 282 288 295 296 299 303 321 344 342 2 5 7 16 20 37 40 32 12 3 355 347 340 338 341 341 341 338 338 336 337 340 342 345 344 341 340 340 340 342 343 343 343 342 338 335 335 331 325 320 314 311 308 306 300 296 293 288
184 200 207 247 276 292 307 268 271 241 264 356 98 89 65 94 114 117 122 123 123 135 149 158 148 127 244 232 228 225 183 180 192 185 209 223 230 246 260 269 281 289 294 296 299 307 330 347 341 360 1 2 11 13 31 28 20 6 358 350 342 338 337 342 343 342 342 341 339 340 342 344 347 345 343 342 341 342 344 345 345 345 344 342 338 334 329 323 318 314 309 309 310 301 295 292 288
164 194 215 243 264 267 271 254 264 256 297 2 86 109 87 102 121 128 135 133 131 171 177 167 138 177 220 212 217 224 218 207 199 204 220 231 232 249 262 265 277 287 296 304 303 311 327 336 336 350 354 359 9 10 22 12 6 0 352 346 338 336 338 343 344 345 346 344 342 342 344 347 348 348 346 343 344 345 346 348 347 346 346 343 337 333 333 327 321 316 310 310 310 302 296 293 291
173 201 207 223 252 193 240 257 262 270 69 59 68 98 109 124 140 142 158 159 154 178 180 176 167 200 190 194 217 221 230 225 226 230 232 239 243 254 265 273 281 284 295 305 303 315 321 321 327 331 349 359 8 11 11 357 356 356 347 341 336 335 338 344 347 349 348 346 344 344 346 348 350 349 348 345 346 347 349 350 348 348 348 345 341 338 338 332 327 323 319 314 309 302 298 295 294
188 222 227 228 257 224 238 252 263 275 150 116 90 100 112 136 161 159 154 133 146 161 167 180 180 186 137 203 234 206 229 240 238 241 243 248 250 252 259 276 287 291 303 309 304 315 314 311 312 314 348 359 9 3 354 352 351 351 345 338 335 335 338 345 351 350 350 347 345 347 349 350 351 351 349 348 349 350 352 352 350 351 350 349 349 348 344 338 334 331 328 320 308 303 302 299 297
203 223 254 315 253 274 256 239 238 245 106 107 113 130 131 144 168 184 161 134 158 153 153 173 185 218 246 261 229 196 226 244 253 245 245 254 250 246 256 272 285 295 306 309 304 309 306 308 302 313 346 344 1 351 344 348 348 348 342 337 334 335 339 347 352 352 350 348 348 350 351 351 353 353 350 350 351 353 354 354 352 352 352 352 353 351 347 343 337 331 327 322 313 307 307 304 300
217 210 225 321 239 255 252 249 244 155 114 114 108 129 141 152 161 192 178 129 155 147 149 164 190 231 244 268 228 205 226 244 267 257 243 253 240 238 259 274 282 289 299 304 303 304 301 307 301 311 333 334 345 333 340 344 346 347 341 339 335 335 340 348 352 352 350 349 352 353 354 353 353 354 353 352 354 356 357 357 355 355 355 354 352 349 349 344 336 330 325 323 319 312 311 311 307
225 197 177 255 243 249 259 315 301 21 110 151 109 129 144 154 162 184 185 153 164 164 176 190 190 210 212 240 219 206 224 240 258 259 240 238 230 234 258 277 288 287 294 300 298 298 299 303 297 303 313 320 329 323 334 341 344 345 341 340 336 336 340 348 352 350 350 351 355 358 356 355 356 356 353 354 357 359 360 359 358 358 358 354 350 349 349 341 332 330 328 326 326 324 323 324 321
236 238 179 215 232 264 311 342 319 335 7 112 67 128 151 159 181 193 191 187 179 181 201 207 193 187 223 216 193 207 227 233 236 246 238 230 235 235 250 270 283 284 291 297 296 295 295 296 292 298 303 308 313 318 330 337 343 343 341 340 336 337 340 347 351 349 351 352 358 1 358 358 359 356 355 357 359 2 2 1 1 2 360 355 351 354 352 343 339 337 339 342 345 346 345 344 338
254 305 293 248 230 279 297 312 308 305 311 56 54 124 158 167 200 193 192 196 185 191 193 195 191 200 255 217 186 203 205 214 221 230 233 233 241 236 240 262 276 281 293 296 295 295 289 286 294 304 296 296 302 313 325 334 340 341 341 339 337 337 341 347 348 347 350 355 0 1 2 360 355 357 1 1 3 5 4 3 5 5 2 360 359 2 357 350 353 352 357 8 5 0 0 0 358
254 334 325 274 293 289 231 217 261 269 296 101 78 161 175 193 209 179 212 223 180 193 181 182 193 189 236 223 183 186 191 209 218 216 229 235 241 236 235 256 270 278 293 295 292 290 287 288 294 294 288 294 302 312 322 335 340 341 340 336 338 339 343 347 344 346 351 358 359 359 3 356 354 2 3 4 8 8 4 7 8 7 8 11 11 8 2 359 3 3 14 25 13 9 10 11 12
234 331 310 244 283 276 206 192 231 243 311 85 113 167 193 223 213 206 227 235 164 198 205 195 203 207 209 228 188 183 192 210 213 219 233 234 237 237 239 254 272 281 286 287 288 284 281 288 288 282 285 298 310 319 324 337 342 337 338 334 338 341 345 347 343 345 351 357 356 360 360 355 3 3 0 7 11 8 7 10 12 13 18 20 19 13 7 9 9 10 19 23 17 17 19 18 14
232 300 257 246 250 254 249 190 225 209 137 116 163 186 221 221 205 236 239 236 242 229 229 224 223 226 217 223 234 211 206 213 215 228 240 242 240 238 245 251 264 277 281 278 278 278 277 280 280 276 281 295 309 320 321 330 339 336 335 330 336 345 347 347 341 343 350 356 358 1 357 359 7 358 359 11 11 10 11 13 15 21 25 24 24 16 10 14 15 14 19 17 22 29 24 18 13
214 207 209 245 239 245 345 21 352 313 107 120 162 201 260 251 179 235 251 239 236 240 246 240 239 239 229 229 250 242 227 224 228 239 248 249 243 244 249 255 267 277 288 293 292 282 281 280 273 268 276 291 303 313 317 323 333 329 325 327 340 351 349 345 338 344 355 360 359 358 357 3 4 355 1 11 11 12 14 14 18 23 25 25 27 21 14 17 18 17 20 16 24 36 28 19 14
205 233 217 239 246 15 16 24 21 11 27 78 135 189 270 292 157 214 248 241 221 228 246 238 237 243 238 232 241 248 240 236 241 246 252 252 247 250 247 250 273 272 265 280 289 282 280 280 276 266 271 286 298 307 313 317 324 320 325 339 350 356 353 346 343 353 360 358 356 359 2 2 359 358 6 10 11 15 16 16 20 25 25 25 29 29 23 20 20 19 21 23 30 38 34 26 17
210 237 238 234 358 58 41 36 42 30 357 1 34 169 255 267 245 201 240 259 227 219 231 222 228 238 242 235 232 242 245 242 246 249 252 254 250 247 237 217 229 238 241 249 254 261 272 278 275 270 271 282 295 304 312 316 324 328 337 347 354 357 353 350 352 358 2 358 1 4 3 360 358 3 8 10 11 17 20 17 21 27 24 24 27 33 32 25 23 23 23 25 33 38 39 38 29
192 212 241 311 358 20 57 47 42 19 355 339 332 286 266 261 235 222 247 274 249 236 233 221 230 239 240 238 232 237 242 243 247 251 252 253 249 242 236 220 214 223 232 233 231 249 267 268 266 267 271 280 290 300 311 318 327 334 338 345 353 353 351 354 355 357 5 7 6 6 3 2 0 4 9 9 11 18 23 19 21 27 24 21 21 27 34 30 25 26 26 25 33 39 39 41 37
247 233 248 23 348 5 79 26 338 351 357 304 281 276 281 265 237 236 236 240 239 251 232 217 229 236 217 217 221 227 234 241 246 250 249 247 245 240 234 225 216 219 227 233 237 251 262 258 260 267 269 277 284 294 306 317 323 327 331 344 351 347 351 356 357 4 11 8 6 10 9 6 2 5 10 9 11 18 24 23 21 27 27 22 17 22 32 33 27 27 29 30 35 42 45 45 41
242 241 248 56 296 320 116 308 312 325 305 256 256 278 288 280 265 249 232 234 238 248 240 217 224 226 213 206 206 213 223 236 244 246 244 239 237 235 233 230 227 229 235 241 243 247 253 254 260 267 271 275 279 289 300 307 310 315 330 344 345 342 352 354 2 12 12 12 16 18 14 9 6 7 11 9 12 17 23 27 23 26 30 26 19 25 34 31 27 29 31 36 38 39 50 52 47
202 258 254 194 262 264 237 269 285 275 235 244 263 284 282 261 271 266 242 243 242 242 249 252 248 240 229 222 217 217 221 232 239 240 243 238 234 231 231 233 233 237 241 243 239 239 249 251 248 263 274 275 275 281 290 293 298 314 331 337 338 344 352 355 9 14 11 24 29 24 19 14 11 9 10 10 12 15 22 29 26 25 29 29 23 28 41 29 22 31 32 35 40 35 46 58 49
204 263 289 220 250 228 249 269 269 266 246 251 269 271 267 256 262 275 259 255 251 246 248 252 256 253 239 232 229 226 225 228 231 230 230 231 230 226 227 230 233 237 240 238 236 239 249 250 245 260 270 274 274 273 279 286 298 315 327 328 338 347 350 1 13 13 20 33 33 30 25 19 17 13 12 13 11 13 20 28 29 27 26 30 28 28 46 34 16 28 32 31 39 38 41 54 45
212 297 6 267 227 205 239 256 241 242 244 245 260 262 266 264 263 269 264 264 262 253 249 245 246 250 244 237 234 232 234 235 235 234 230 229 231 230 229 231 234 237 234 228 231 239 245 246 249 259 263 268 273 273 273 279 295 309 318 326 335 340 351 8 14 20 32 37 35 33 28 26 25 19 16 16 14 14 19 27 30 29 26 26 31 32 46 47 19 19 34 31 34 38 39 45 42
329 336 310 275 245 227 231 238 224 225 245 225 229 268 267 265 265 265 263 266 262 242 236 234 230 239 244 242 239 238 242 239 236 238 234 230 232 233 231 230 232 231 226 222 228 237 238 240 247 256 258 261 266 270 270 277 295 305 316 324 327 337 356 11 18 32 39 40 39 35 32 34 32 25 23 19 16 17 21 27 28 31 29 24 31 36 41 52 33 17 32 37 31 32 37 39 41
305 310 296 261 237 240 228 225 218 215 243 216 222 268 262 252 223 253 255 247 242 223 218 224 226 236 242 244 243 240 242 236 226 229 233 234 233 232 230 230 229 226 224 222 227 235 232 234 243 250 256 262 261 259 262 273 286 296 307 312 322 343 0 13 28 40 42 42 43 40 39 40 38 32 29 23 19 20 23 27 29 31 30 26 32 37 38 46 46 26 26 39 40 34 37 36 37
301 279 297 249 221 237 217 205 201 196 197 199 227 280 262 211 218 252 257 240 233 220 215 225 230 240 242 240 236 232 236 230 220 223 230 234 235 232 230 231 229 226 224 220 226 232 229 232 239 247 255 260 257 253 256 266 276 287 296 303 323 348 3 22 38 44 44 45 46 46 45 44 43 40 34 28 23 22 25 27 29 32 30 31 36 36 39 43 44 40 30 38 56 52 45 38 32
299 218 253 265 243 247 195 175 158 174 199 196 218 294 270 222 230 249 252 222 220 215 220 227 231 241 238 226 221 223 230 229 226 226 227 228 229 229 229 229 227 223 221 221 226 228 226 232 237 244 253 255 253 252 255 263 272 284 290 303 330 349 4 30 45 48 47 44 45 47 49 48 47 48 42 34 29 26 28 28 29 33 31 36 42 37 38 43 41 44 45 41 52 51 44 37 29
268 181 219 241 244 259 170 162 159 165 200 188 154 250 266 283 245 228 214 207 210 213 223 225 226 232 228 222 221 226 233 236 236 231 228 225 221 223 224 226 225 219 222 226 228 228 229 234 236 241 249 252 251 251 254 261 266 274 287 304 333 349 5 33 46 49 46 40 42 44 47 50 50 53 52 43 36 32 30 30 30 32 32 39 46 43 39 41 40 42 48 44 35 33 33 37 37
221 181 236 199 197 227 175 181 182 182 195 178 160 230 262 286 219 182 196 206 204 213 225 226 227 225 222 224 227 234 239 242 240 230 228 225 219 222 223 225 227 220 224 230 228 228 231 232 235 240 247 250 249 249 248 252 256 264 282 302 325 347 7 31 46 48 43 38 39 42 44 50 53 55 58 53 44 39 34 31 33 32 31 41 47 49 46 42 43 44 47 47 42 38 35 38 47
215 204 255 190 189 219 196 218 213 225 196 186 201 264 274 275 159 177 203 210 209 216 226 228 229 223 219 223 229 235 234 234 234 226 225 225 220 225 226 225 228 224 224 232 231 231 234 233 236 239 245 249 247 247 242 242 249 256 270 286 301 328 1 25 44 43 39 40 41 43 47 51 56 58 60 60 53 47 42 33 33 33 30 39 45 49 53 48 45 48 51 51 50 46 42 46 48
210 202 250 260 231 235 233 252 215 194 197 217 217 237 260 260 245 240 236 223 217 217 226 229 228 223 220 221 225 228 222 221 228 223 220 221 218 224 227 224 227 224 222 232 235 235 236 234 237 238 243 246 243 242 237 239 245 248 259 263 268 290 315 2 37 36 39 45 43 45 49 53 55 58 60 61 57 52 50 42 35 33 31 37 42 44 52 55 50 50 56 54 52 49 47 54 57
135 161 234 300 293 257 251 243 210 189 187 227 234 239 257 264 264 258 253 243 227 223 230 231 229 226 221 218 219 221 218 217 225 225 217 216 218 223 225 221 222 220 221 230 234 234 234 232 235 237 240 242 239 236 231 235 241 243 247 248 245 233 225 272 315 28 45 46 47 47 46 49 48 50 55 56 56 52 51 52 43 36 32 35 40 41 45 53 56 58 63 60 53 50 48 54 61
34 105 266 305 304 280 271 115 182 254 215 231 238 243 258 269 269 260 258 249 232 230 234 231 227 225 221 218 217 218 218 218 223 226 218 215 220 225 223 219 219 218 219 227 230 231 232 230 231 234 236 238 233 229 228 230 236 240 240 241 237 207 207 233 239 29 53 47 47 44 36 39 36 37 46 49 51 49 49 54 52 46 39 36 36 38 38 40 50 58 68 70 63 57 57 58 60
294 323 303 275 274 276 269 104 173 290 284 249 247 254 262 270 274 270 266 256 237 231 231 229 226 223 221 217 215 216 218 219 217 216 214 214 222 226 221 217 216 215 216 221 225 229 230 228 229 230 232 233 228 225 225 226 231 235 235 235 230 208 210 220 214 262 42 45 38 32 22 21 20 23 32 38 40 41 46 50 53 53 49 46 39 38 40 36 40 47 60 73 72 68 66 68 70
307 314 296 283 268 269 64 98 205 168 77 270 282 286 277 275 279 277 270 258 242 236 229 228 227 223 224 221 218 216 214 212 208 206 209 214 221 222 217 215 215 216 216 219 223 227 228 226 226 227 228 227 223 220 219 222 228 234 239 240 237 229 229 225 206 221 267 14 15 3 3 5 3 8 16 24 27 28 38 44 50 55 53 56 52 46 46 42 43 42 50 63 70 72 70 71 81
45 242 315 300 269 275 52 82 188 147 192 272 316 309 286 279 276 275 270 258 251 248 239 234 229 222 224 224 223 221 212 206 204 206 210 215 220 218 214 214 214 216 218 220 222 224 225 223 223 224 223 221 219 217 216 217 222 231 241 245 246 247 246 242 236 236 254 309 338 338 347 351 352 357 4 10 14 17 26 33 40 51 55 56 57 58 55 49 47 43 44 52 62 73 74 74 79
222 194 208 265 290 25 261 307 306 229 206 278 320 304 284 278 273 272 267 256 252 247 240 235 225 218 223 226 226 224 217 208 203 206 210 213 215 214 212 211 212 214 216 218 219 222 222 220 222 222 219 218 215 215 213 208 211 222 234 242 241 240 242 241 245 252 255 278 304 324 335 339 343 348 354 360 4 10 15 21 30 40 53 57 55 61 64 59 55 48 42 43 48 59 70 78 80
229 200 212 255 327 33 245 317 323 286 238 342 320 300 277 274 285 290 287 277 267 245 234 234 222 217 221 221 220 219 217 212 206 206 210 212 212 212 211 210 212 213 215 218 220 222 219 218 222 221 217 215 210 210 207 203 210 220 228 233 231 229 231 232 237 247 251 266 289 310 324 325 330 336 345 353 356 5 11 14 20 28 42 56 57 58 64 66 65 58 51 45 40 38 49 68 80
253 205 351 319 36 19 322 337 339 340 346 300 13 346 291 294 306 294 293 290 275 246 228 239 237 232 229 224 217 207 208 214 213 212 213 213 212 210 208 208 212 213 215 218 220 219 217 218 220 218 215 211 205 206 205 208 217 223 229 232 232 229 230 233 235 242 247 256 278 295 303 302 303 313 340 353 355 4 12 13 11 20 36 48 55 60 66 67 67 68 64 61 53 43 38 39 57
284 286 325 335 41 26 357 3 10 351 288 255 125 112 275 300 298 277 267 260 247 208 213 233 234 233 233 231 225 212 204 207 212 214 214 213 210 208 207 209 213 213 214 215 216 216 215 217 218 215 213 207 203 207 209 215 221 225 231 231 231 231 232 237 241 244 248 253 263 272 272 269 263 260 6 3 357 8 18 18 8 17 37 42 48 55 66 71 69 69 68 70 73 67 59 34 34
233 260 307 344 23 21 25 44 100 237 286 294 143 151 237 292 288 270 252 261 267 245 233 226 218 218 222 225 224 221 214 208 206 208 211 212 211 210 210 211 212 212 214 214 213 214 214 214 214 213 211 205 205 210 214 221 227 229 232 230 229 231 232 237 245 247 246 246 248 250 246 239 232 199 92 21 12 37 33 28 11 21 42 42 44 49 62 74 77 73 69 71 74 75 78 74 63
208 268 308 6 26 7 37 86 229 262 321 317 246 170 176 266 278 288 254 261 289 276 247 220 204 204 208 213 216 219 215 207 205 206 207 209 209 211 213 213 211 212 214 213 212 213 213 212 213 213 211 208 210 215 220 227 232 233 232 229 230 231 231 234 240 242 239 239 239 234 230 222 210 183 156 185 181 127 76 46 14 28 45 40 40 44 53 65 73 76 74 72 71 70 70 74 85
223 271 264 282 52 333 35 141 255 289 284 263 237 179 176 268 278 290 299 274 273 275 264 196 190 194 201 205 204 206 201 194 198 203 204 206 208 209 211 210 210 213 212 210 211 214 213 212 214 215 214 214 218 221 226 231 233 235 232 227 227 228 230 234 237 236 232 230 228 223 219 213 199 184 183 191 181 150 110 79 48 48 50 43 38 38 46 59 70 76 78 77 74 73 72 73 82
243 268 258 232 149 45 290 194 242 2 256 260 238 172 142 285 278 262 228 211 212 234 331 167 168 179 192 197 196 197 195 190 191 196 198 201 205 207 209 209 211 214 212 210 213 214 214 214 216 219 219 220 223 226 229 232 233 234 231 226 225 226 229 233 234 233 229 225 221 218 214 206 197 188 190 194 182 159 135 120 111 87 62 49 44 43 50 59 68 71 72 76 78 79 81 81 83
265 290 351 21 353 351 22 3 45 110 252 271 275 147 126 224 267 262 236 245 246 245 259 171 160 176 184 191 197 196 195 194 192 192 195 198 201 204 208 211 213 215 213 213 215 215 215 216 217 220 222 223 226 228 230 232 233 232 229 224 222 225 228 230 231 229 226 222 218 215 210 204 198 192 192 193 186 169 150 138 125 108 80 61 57 56 60 62 66 70 74 78 83 86 88 90 91
308 53 64 52 347 326 354 308 177 200 244 258 248 329 246 241 256 264 270 280 289 291 127 116 145 182 186 192 197 197 197 197 195 196 199 202 204 206 210 213 215 215 215 215 216 217 218 219 220 222 225 227 229 231 231 232 233 231 226 222 222 224 224 225 225 223 221 219 216 213 209 204 199 194 194 193 187 178 160 148 133 116 95 74 64 58 62 68 73 79 83 84 87 90 92 95 97
171 131 116 125 176 283 274 260 236 240 258 253 257 283 271 274 266 252 257 258 238 80 87 153 196 182 193 200 199 198 201 201 199 202 205 208 210 212 214 217 217 216 217 218 219 220 221 221 223 225 228 231 232 234 234 232 232 229 224 223 222 222 223 222 220 218 218 216 213 211 208 204 200 196 196 194 190 184 174 160 145 132 117 92 72 62 63 69 77 84 84 84 85 89 96 101 101
185 159 120 136 153 188 233 248 265 284 299 283 311 304 217 231 261 235 204 169 172 220 267 257 256 243 211 201 199 199 203 206 206 207 211 214 216 217 219 221 221 219 219 220 221 222 224 224 226 229 232 234 236 236 236 233 231 227 223 222 222 222 223 221 217 217 217 215 213 211 209 205 202 198 197 197 195 191 182 172 161 159 155 124 91 77 76 77 83 87 84 79 76 79 88 100 106
222 91 93 144 198 183 204 206 226 266 327 287 254 251 221 215 269 267 204 166 231 240 242 263 266 252 216 193 198 202 207 211 211 212 215 218 220 221 223 223 223 222 222 223 224 225 227 228 229 232 235 238 240 239 237 233 230 226 223 221 221 221 221 219 217 217 216 214 214 213 210 207 203 200 200 201 200 195 189 183 177 180 181 165 152 139 137 138 121 114 102 74 66 78 87 103 119
274 81 135 241 227 145 172 275 358 82 299 261 205 253 286 298 291 289 220 215 263 202 211 240 242 236 215 203 205 211 215 218 218 218 220 222 224 224 225 226 225 225 225 226 227 229 231 233 234 236 238 240 241 239 236 232 228 225 223 221 222 222 221 220 220 219 218 215 214 213 210 208 205 203 205 205 203 201 195 189 188 191 192 188 183 179 181 182 179 179 173 135 99 108 135 146 149
104 158 240 272 273 85 112 286 340 327 263 261 198 228 272 295 283 307 35 296 265 228 215 227 218 212 217 220 221 222 225 226 225 225 225 226 227 227 226 227 227 228 229 229 230 232 234 236 238 239 242 243 243 240 235 231 227 224 223 223 223 223 222 221 221 220 220 217 215 213 210 209 207 207 208 208 207 205 200 194 194 198 199 193 189 189 189 190 190 198 208 212 204 191 198 202 193
135 208 265 3 115 252 172 173 262 246 260 283 244 235 236 205 238 284 289 257 249 223 207 211 213 212 223 233 232 229 230 230 230 230 229 228 229 229 229 229 229 230 231 231 232 234 236 237 239 241 243 245 244 240 234 229 226 224 224 225 224 223 223 222 221 221 220 218 217 214 212 211 210 210 211 211 211 208 202 198 198 200 200 195 192 194 196 196 198 205 215 221 217 216 219 219 213
60 321 325 49 174 200 185 183 184 197 257 291 280 263 233 209 226 233 235 246 243 203 204 215 225 224 233 241 237 234 233 233 237 236 233 232 231 232 231 232 232 232 232 232 234 236 238 239 240 241 243 244 241 237 232 228 225 224 225 225 224 223 223 222 222 221 220 219 217 216 215 213 212 213 213 213 212 208 202 201 201 202 201 198 199 201 203 204 205 209 214 218 218 215 218 221 220
137 161 220 211 214 188 195 259 199 164 236 274 287 280 239 210 238 222 217 253 275 202 208 223 229 229 240 247 243 243 242 242 247 244 238 236 234 234 233 233 234 234 234 234 235 237 239 240 241 242 244 244 240 235 230 227 225 225 226 226 225 224 223 223 222 222 221 220 219 218 217 215 215 215 215 214 211 207 203 203 205 206 206 206 208 208 209 209 209 211 213 214 214 211 212 219 222
158 176 193 189 176 139 92 271 245 163 208 206 233 275 258 214 236 231 221 258 261 184 196 232 241 237 243 252 251 250 252 253 258 254 245 239 237 236 236 235 235 235 235 236 237 239 240 240 241 243 244 243 239 234 230 227 226 226 227 227 226 226 225 224 224 223 222 221 220 219 217 217 217 216 216 215 213 209 207 208 209 211 212 214 216 216 216 215 214 215 215 213 212 210 211 218 222